Location: Newark
(43.7333°N, 7.4000°E)
Time: 23:21:58
(UTC+00:00)

Envisat - Pass Details

Date: 24 September 2020
Orbit: 764 x 766 km, 98.1° (Epoch: 29 October)

Event Time Altitude Azimuth Distance (km) Brightness Sun altitude
Rises 04:06:55 0° 34° (NE) 3,238 7.0 -14.0°
Reaches altitude 10° 04:10:51 10° 65° (ENE) 2,304 6.8 -13.3°
Maximum altitude 04:12:47 12° 88° (E) 2,158 6.7 -12.9°
Drops below altitude 10° 04:14:43 10° 110° (ESE) 2,297 6.4 -12.6°
Sets 04:18:37 0° 141° (SE) 3,215 6.6 -11.9°
